CAPE
2 3 1 0 0 0 0 0 1 2 2 2 1 1 1 0 0 0 0 0 137 1247 769 193 708 714 320 163 66 37 46 3 42 87 43 15 5 9 67 41 135 177 124 277 481
3 2 0 0 0 0 0 1 0 2 2 1 2 1 0 0 0 0 0 105 294 754 55 651 969 619 161 290 692 141 82 0 0 3 18 22 3 1 50 136 145 262 345 466 401
0 0 0 0 0 0 0 1 0 2 2 2 1 1 0 0 0 0 37 571 880 995 515 396 201 97 194 104 570 597 382 141 65 15 13 0 0 0 67 114 96 237 372 366 313
0 0 0 0 0 0 0 0 1 0 0 2 2 1 0 0 0 103 1027 911 895 590 461 650 191 152 102 196 267 139 218 164 75 8 0 0 0 0 0 54 99 237 321 276 262
0 1 0 1 0 0 0 0 0 0 0 2 1 0 0 0 0 653 1774 873 599 0 114 898 148 253 447 300 94 271 347 80 42 0 0 3 0 0 31 113 149 207 256 209 194
1 0 0 0 0 0 0 1 0 0 0 2 0 0 0 0 44 522 235 251 66 143 267 560 419 363 252 127 162 257 190 29 43 3 0 13 0 0 88 137 160 181 189 163 108
1 1 0 1 1 1 1 0 0 0 1 1 0 0 0 0 2 154 121 2 0 9 36 200 139 231 231 55 93 126 4 12 19 1 1 0 0 0 93 135 154 145 130 104 72
1 1 0 1 0 1 0 0 1 0 0 0 0 0 0 0 0 136 14 164 199 375 97 98 66 9 43 1 5 43 11 1 24 23 0 0 0 0 52 97 99 100 91 99 60
1 1 1 1 1 1 1 1 0 0 0 0 0 0 0 0 0 0 2 278 212 245 162 110 83 10 10 41 6 10 20 2 54 149 1 0 0 0 0 5 59 58 52 67 72
0 2 0 1 0 1 0 0 0 0 0 0 0 0 0 0 26 3 0 110 239 192 265 181 92 16 0 14 19 37 10 30 0 136 19 2 0 0 0 0 0 0 0 0 6
1 4 0 0 1 0 0 0 0 0 0 0 0 0 0 0 155 63 68 114 260 134 202 187 252 90 1 3 5 70 79 181 179 301 54 50 5 0 0 0 0 0 0 0 0
3 2 0 0 1 0 0 0 0 0 0 0 0 0 0 0 0 168 298 205 421 429 0 2 129 119 10 0 5 88 190 184 242 299 193 25 10 0 0 0 0 0 0 0 0
3 0 0 0 0 0 0 0 0 0 0 0 0 0 0 0 0 0 357 185 241 272 129 149 103 0 0 24 18 78 165 135 103 457 266 61 38 13 6 0 0 0 0 0 0
2 0 0 0 0 0 0 0 0 0 0 0 0 0 0 0 0 0 261 11 0 80 22 5 0 20 33 50 20 26 57 176 351 22 53 51 70 3 0 6 3 0 0 0 0
3 0 0 0 0 0 0 0 0 0 0 0 0 0 0 0 0 0 0 9 32 114 47 230 25 0 257 220 16 49 37 342 201 0 5 32 57 4 0 1 0 7 0 0 5
2 0 0 0 0 0 0 0 0 0 0 0 0 0 0 0 0 0 0 0 5 31 0 33 0 0 0 217 75 118 102 12 0 10 73 17 108 28 12 20 27 2 0 0 15
0 0 0 0 0 0 0 0 0 0 0 0 0 0 0 0 0 0 0 0 0 0 0 0 0 0 0 21 72 260 126 154 114 186 159 0 0 57 2 52 11 30 8 0 21
0 0 0 0 0 0 0 0 0 0 0 0 0 0 0 0 0 0 0 0 0 0 0 0 0 0 0 0 194 322 0 17 1 12 0 0 10 35 121 356 550 187 44 11 20
0 0 0 0 0 0 0 0 0 0 0 0 0 0 0 0 0 0 0 0 0 0 0 0 0 0 0 0 134 121 217 0 0 0 0 0 0 3 163 168 328 368 433 493 185
0 0 0 0 0 0 0 0 0 0 0 0 0 0 0 0 0 0 0 0 0 0 0 0 0 0 0 0 0 0 0 0 0 0 0 0 0 25 177 164 71 11 2 3 2
0 0 0 0 0 0 0 0 0 0 0 0 0 0 0 0 0 0 0 0 0 0 0 0 0 0 0 0 0 0 0 0 0 0 0 0 0 613 394 182 6 2 3 3 2
0 0 0 0 0 0 0 0 0 0 0 0 0 0 0 0 0 0 0 0 0 0 0 0 0 0 0 0 0 0 0 0 0 0 0 0 0 476 261 124 0 2 2 1 1
0 0 0 0 0 0 0 0 0 0 0 0 0 0 0 0 0 0 0 0 0 0 0 0 0 0 0 0 0 0 0 0 0 0 0 0 0 371 250 117 135 30 2 3 2
0 0 0 0 0 0 0 0 0 0 0 0 0 0 0 0 0 0 0 0 0 0 0 0 0 0 0 0 0 0 0 0 0 0 0 0 12 458 306 453 318 38 1 1 1
0 0 0 0 0 0 0 0 0 0 0 0 0 0 0 0 0 0 0 0 0 0 0 0 0 0 0 0 0 0 0 251 0 0 0 0 139 386 631 592 176 43 0 0 0
0 0 0 0 0 0 0 0 0 0 0 0 0 0 0 0 0 0 0 0 0 0 0 0 0 0 0 0 0 0 0 0 146 679 728 547 732 618 504 129 71 24 0 0 0
0 0 0 0 0 0 0 0 0 0 0 0 0 0 0 0 0 0 0 0 0 0 0 0 0 0 0 0 0 0 0 7 319 432 803 680 559 513 444 392 228 74 62 23 0
CIN
0 0 0 0 0 0 0 0 0 0 0 0 0 0 0 0 0 0 0 0 -139 -240 -226 -257 -156 -139 -182 -196 -221 -270 -122 -40 -65 -75 -103 -176 -172 -170 -177 -211 -150 -169 -227 -141 -49
0 0 0 0 0 0 0 0 0 0 0 0 0 0 0 0 0 0 0 -454 -402 -299 -297 -164 -140 -198 -234 -183 -137 -181 -135 0 0 -59 -117 -139 -93 -64 -175 -158 -189 -178 -116 -72 -69
0 0 0 0 0 0 0 0 0 0 0 0 0 0 0 0 0 0 -373 -383 -345 -293 -188 -202 -260 -230 -181 -248 -136 -124 -84 -70 -125 -118 -143 -13 0 0 -182 -168 -212 -218 -138 -99 -84
0 0 0 0 0 0 0 0 0 0 0 0 0 0 0 0 0 -240 -308 -331 -321 -253 -193 -175 -185 -188 -152 -122 -150 -144 -119 -88 -120 -157 0 0 0 0 0 -209 -222 -178 -158 -161 -131
0 0 0 0 0 0 0 0 0 0 0 0 0 0 0 0 0 -298 -249 -294 -279 0 -199 -137 -144 -189 -127 -155 -189 -136 -119 -94 -116 0 0 -64 0 0 -189 -187 -187 -167 -132 -151 -138
0 0 0 0 0 0 0 0 0 0 0 0 0 0 0 0 -146 -362 -334 -324 -177 -239 -174 -130 -145 -190 -169 -188 -138 -169 -148 -87 -102 -134 0 -185 0 0 -189 -183 -166 -184 -145 -143 -129
0 0 0 0 0 0 0 0 0 0 0 0 0 0 0 0 -380 -356 -312 -20 -11 -240 -199 -176 -248 -162 -207 -170 -252 -183 -55 -59 -109 -7 -8 0 0 0 -207 -165 -174 -167 -170 -140 -115
0 0 0 0 0 0 0 0 0 0 0 0 0 0 0 0 0 -305 -351 -251 -231 -181 -195 -240 -237 -297 -302 -17 -91 -120 -140 -15 -92 -70 0 0 0 0 -190 -164 -143 -155 -155 -116 -115
0 0 0 0 0 0 0 0 0 0 0 0 0 0 0 -32 0 0 -173 -197 -224 -192 -195 -188 -244 -179 -265 -185 -95 -176 -61 -35 -70 -73 -37 0 0 0 0 -50 -150 -137 -130 -126 -118
0 0 0 0 0 0 0 0 0 0 0 0 0 0 0 -35 -353 -313 0 -214 -131 -171 -181 -197 -245 -215 -20 -152 -55 -66 -82 -121 0 -122 -157 -152 0 0 0 0 0 0 0 0 -35
0 0 0 0 0 0 0 0 0 0 0 0 0 0 0 0 -230 -298 -243 -186 -114 -145 -93 -175 -121 -70 -102 -111 -112 -85 -83 -109 -126 -129 -161 -166 -194 0 0 0 0 0 0 0 0
0 0 0 0 0 0 0 0 0 0 0 0 0 0 0 0 0 -213 -170 -150 -79 -55 -1 -52 -140 -116 -119 -39 -47 -61 -86 -122 -160 -184 -164 -246 -225 -1 0 0 0 0 0 0 0
0 0 0 0 -1 0 0 0 0 0 0 0 0 0 0 0 0 0 -172 -163 -94 -87 -160 -132 -86 0 -5 -197 -150 -116 -104 -111 -105 -163 -198 -206 -216 -264 -308 0 0 0 0 0 0
0 0 0 0 0 0 0 0 0 0 0 0 0 0 0 0 0 0 -190 -88 0 -150 -225 -71 0 -111 -174 -174 -208 -174 -219 -128 -134 -161 -92 -222 -142 -297 0 -330 -260 0 0 0 0
0 0 0 0 0 0 0 0 0 0 0 0 0 0 0 0 0 0 0 -293 -187 -110 -178 -73 -153 -24 -110 -120 -190 -181 -224 -129 -153 0 -199 -216 -133 -284 -11 -462 0 -306 0 0 -390
0 0 0 0 0 0 0 0 0 0 0 0 0 0 0 0 0 0 0 0 -97 -230 -1 -117 -34 0 0 -115 -185 -249 -249 -281 0 -190 -86 -245 -117 -286 -484 -443 -347 -146 -55 0 -400
0 0 0 0 0 0 0 0 0 0 0 0 0 0 0 0 0 0 0 0 0 0 0 0 0 0 0 -151 -186 -199 -162 -90 -62 -53 -76 0 0 -183 -144 -504 -399 -408 -395 0 -417
0 0 0 0 0 0 0 0 0 0 0 0 0 0 0 0 0 0 0 0 0 0 0 0 0 0 0 0 -128 -194 -2 -62 -4 -56 -9 0 -184 -275 -504 -468 -486 -546 -414 -446 -442
0 0 0 0 0 0 0 0 0 0 0 0 0 0 0 0 0 0 0 0 0 0 0 0 0 0 0 0 -152 -145 -102 0 0 0 0 0 0 -38 -492 -561 -539 -564 -568 -512 -496
0 0 0 0 0 0 0 0 0 0 0 0 0 0 0 0 0 0 0 0 0 0 0 0 0 0 0 0 0 0 0 0 0 0 0 0 0 -110 -391 -466 -607 -452 0 0 0
0 0 0 0 0 0 0 0 0 0 0 0 0 0 0 0 0 0 0 0 0 0 0 0 0 0 0 0 0 0 0 0 0 0 0 0 0 -283 -354 -449 -116 0 0 0 0
0 0 0 0 0 0 0 0 0 0 0 0 0 0 0 0 0 0 0 0 0 0 0 0 0 0 0 0 0 0 0 0 0 0 0 0 0 -378 -446 -490 0 0 0 0 0
0 0 0 0 0 0 0 0 0 0 0 0 0 0 0 0 0 0 0 0 0 0 0 0 0 0 0 0 0 0 0 0 0 0 0 0 0 -417 -464 -485 -430 -469 0 0 0
0 0 0 0 0 0 0 0 0 0 0 0 0 0 0 0 0 0 0 0 0 0 0 0 0 0 0 0 0 0 0 0 0 0 0 0 -183 -383 -433 -375 -368 -515 0 0 0
0 0 0 0 0 0 0 0 0 0 0 0 0 0 0 0 0 0 0 0 0 0 0 0 0 0 0 0 0 0 0 -313 0 0 0 0 -417 -432 -322 -312 -488 -626 0 0 0
0 0 0 0 0 0 0 0 0 0 0 0 0 0 0 0 0 0 0 0 0 0 0 0 0 0 0 0 0 0 0 -3 -332 -285 -283 -351 -303 -349 -376 -556 -603 -634 -8 0 0
0 0 0 0 0 0 0 0 0 0 0 0 0 0 0 0 0 0 0 0 0 0 0 0 0 0 0 0 0 0 0 -222 -296 -357 -272 -155 -334 -394 -404 -384 -437 -554 -539 -581 0
Wind_Speed
15 16 16 16 15 15 13 12 12 12 13 12 13 12 11 10 9 2 4 6 8 16 15 11 5 7 3 3 2 2 3 2 4 9 6 11 7 3 5 7 1 3 10 10 13
16 17 17 16 16 15 13 13 12 12 14 13 12 13 10 10 2 4 4 12 21 17 10 11 9 7 4 2 0 3 2 6 6 7 12 9 10 8 6 3 8 12 15 15 14
17 17 17 17 16 15 14 12 13 13 13 15 12 11 11 6 2 4 11 16 18 13 8 3 10 4 3 1 3 3 3 3 4 7 13 11 6 4 12 3 6 21 18 15 13
18 18 18 17 17 16 15 13 14 13 14 15 12 10 9 2 4 3 13 17 15 7 11 9 4 5 1 0 3 2 5 4 8 11 9 10 8 8 2 3 13 13 19 15 14
18 19 18 18 17 17 16 15 14 14 13 14 12 9 2 1 4 4 13 15 8 8 2 2 5 3 2 2 2 1 5 5 8 10 11 10 7 6 3 13 14 14 15 15 13
18 19 18 18 18 18 17 16 15 14 13 12 10 7 0 1 2 9 10 8 5 4 2 3 1 4 2 2 1 2 2 6 7 10 8 9 5 5 5 13 15 16 15 13 13
18 19 19 19 19 18 17 17 16 13 12 9 6 3 1 0 2 7 8 4 5 3 3 5 4 3 2 4 6 5 12 10 8 5 5 12 2 3 13 14 16 14 12 12 12
19 19 19 19 19 19 18 18 16 13 10 6 3 2 2 4 6 7 2 4 2 3 3 4 1 6 4 3 7 6 7 3 0 5 3 3 3 3 12 15 14 13 12 12 13
19 19 20 19 19 19 19 18 14 6 3 5 1 1 2 2 5 3 3 4 2 3 3 5 2 3 2 3 4 8 3 3 3 2 7 3 3 8 11 12 12 13 13 12 10
20 19 20 18 18 18 19 10 5 4 1 3 3 2 1 4 5 6 4 5 5 2 3 4 4 3 3 5 1 3 5 3 7 5 5 5 3 8 11 11 12 11 12 12 13
18 19 20 18 17 14 10 2 4 3 1 4 2 1 1 0 6 4 5 4 3 3 2 4 4 3 5 4 2 6 6 4 2 3 3 3 5 12 11 7 8 9 9 10 12
20 20 20 17 15 11 2 3 4 3 5 3 3 4 4 1 4 4 9 5 4 5 5 5 5 11 8 7 3 5 3 4 2 3 4 3 4 7 12 16 16 14 13 13 11
20 21 20 18 14 4 0 4 2 3 3 6 5 4 5 8 6 9 14 7 5 4 6 6 8 3 6 8 7 5 8 6 1 3 4 5 7 6 11 13 13 13 12 13 15
20 20 19 20 1 2 3 0 5 5 6 6 3 5 4 5 2 5 11 5 1 7 6 6 6 6 7 5 7 6 6 6 6 4 0 4 6 5 8 16 15 16 11 14 13
20 20 16 7 2 2 1 6 3 5 3 2 3 1 1 7 4 2 3 4 6 5 6 7 2 1 4 6 10 4 10 7 8 5 2 1 2 8 3 13 19 18 16 15 14
21 19 12 2 1 7 6 4 5 8 1 2 4 4 5 0 1 4 5 3 1 3 1 6 4 3 4 3 12 11 13 9 6 3 4 6 7 8 5 9 7 15 19 16 15
25 19 4 0 3 5 4 6 7 4 4 0 3 3 2 3 2 3 6 4 6 3 3 3 5 4 4 8 4 5 6 3 3 1 7 2 3 11 6 10 9 12 17 18 17
28 9 7 4 4 7 5 8 2 2 5 4 3 3 5 2 1 2 3 4 1 4 4 3 8 5 5 10 12 9 8 7 8 6 5 4 8 8 1 7 7 5 9 9 12
19 1 2 4 4 2 8 4 7 6 3 4 3 4 1 1 3 2 3 3 5 7 9 3 7 5 5 3 11 6 4 3 7 3 2 5 8 3 2 8 10 12 13 11 13
2 3 4 4 0 5 7 5 4 4 4 1 2 1 3 1 2 3 3 2 2 4 2 8 5 4 5 3 1 8 7 3 2 6 6 5 5 7 2 2 5 7 9 9 11
3 5 4 3 3 7 4 6 5 7 4 1 2 3 2 2 2 1 1 1 1 1 5 5 4 8 2 5 8 2 3 2 6 5 6 3 8 3 3 4 5 5 6 7 9
3 5 4 3 6 1 1 3 4 4 3 1 4 4 3 2 1 1 2 3 2 1 1 2 6 5 12 0 1 4 3 4 7 5 1 3 8 3 6 7 6 4 6 5 7
4 1 4 4 3 4 6 5 3 5 4 3 3 3 2 3 1 1 2 3 4 1 1 5 1 3 11 7 2 4 2 3 4 4 6 6 8 4 6 8 6 7 3 4 6
3 4 6 6 1 2 4 5 6 3 2 5 3 5 3 3 4 2 2 3 6 1 5 7 4 6 8 7 2 2 4 2 3 4 5 7 4 9 10 9 6 5 6 7 6
5 1 3 3 4 3 1 4 5 5 3 5 4 3 3 3 0 1 3 5 4 2 3 5 4 4 2 2 4 2 3 3 2 2 4 3 7 8 10 9 6 6 6 6 5
3 3 4 0 2 3 3 4 4 7 3 2 4 3 1 5 7 5 4 3 5 6 2 3 1 2 3 4 6 4 6 2 3 2 2 3 2 3 8 9 6 5 8 7 5
3 2 3 3 3 2 2 4 4 4 3 3 2 3 3 2 4 4 3 2 2 2 2 3 6 3 4 4 4 4 3 1 2 2 5 4 6 7 7 9 9 9 9 7 6
Wind_Direction
354 352 350 347 342 339 345 340 332 324 320 319 317 321 323 323 317 142 214 214 170 169 143 142 135 116 85 78 136 115 54 150 148 157 132 134 132 94 94 131 93 92 129 126 135
352 349 347 345 340 336 340 335 327 321 317 313 315 317 322 326 233 218 251 137 147 155 149 147 125 152 85 52 132 100 77 202 190 151 154 141 130 127 124 108 89 95 103 124 133
349 346 344 342 338 334 335 331 322 322 315 310 315 313 318 322 174 210 151 158 161 177 167 162 129 95 78 122 168 175 215 259 158 132 134 129 113 100 131 118 192 145 141 144 146
347 343 341 338 336 332 331 326 319 319 314 308 313 313 313 208 136 150 156 167 169 171 135 155 89 94 192 304 234 256 231 236 142 138 121 140 114 112 85 191 144 144 147 149 157
343 341 338 336 334 331 329 322 317 314 312 304 309 318 274 211 249 170 164 153 149 158 201 201 142 114 225 210 301 233 326 98 112 115 117 118 108 118 60 123 134 142 154 163 165
341 339 337 334 332 330 327 320 316 312 307 301 305 315 211 151 63 148 143 133 144 181 192 185 246 181 128 246 103 318 282 80 100 133 129 111 114 90 135 132 142 157 167 172 172
342 337 335 332 331 329 326 319 314 310 300 293 288 270 234 45 168 150 136 127 157 165 185 245 141 80 338 355 326 327 85 68 31 39 81 106 39 156 150 148 154 171 176 180 185
340 336 333 331 330 329 325 318 310 303 294 264 242 264 228 15 106 141 95 81 58 284 96 64 343 97 65 300 12 37 55 66 51 100 183 88 229 131 156 157 171 177 186 192 198
338 335 332 330 330 329 324 315 304 294 265 165 225 1 5 344 140 184 89 140 136 275 161 160 119 86 34 69 52 17 92 49 176 70 155 174 183 174 170 169 180 190 195 199 199
334 331 331 333 329 330 322 307 82 115 211 228 262 31 15 234 161 154 177 162 180 147 73 58 57 76 17 54 196 134 146 210 191 214 174 150 181 162 177 181 193 198 203 206 205
323 324 331 330 328 328 336 113 18 11 58 193 201 160 196 277 119 178 151 156 149 87 59 359 353 207 188 73 225 206 144 218 329 48 337 159 137 185 188 197 192 213 217 206 213
324 330 332 331 324 318 156 113 154 160 325 224 244 289 282 230 139 147 136 161 150 187 121 35 249 250 113 159 178 277 56 244 342 6 82 18 264 196 189 213 207 202 209 215 216
326 334 331 332 326 135 219 227 82 74 119 297 191 183 206 141 205 192 159 183 193 174 176 169 233 161 171 176 174 212 197 193 332 50 70 360 303 185 207 212 225 228 232 214 207
328 334 332 331 44 270 251 210 312 181 65 283 252 267 125 155 227 189 176 147 196 208 166 227 255 221 145 190 163 224 177 120 109 75 277 16 283 275 205 208 213 220 210 223 206
329 332 330 336 264 175 88 326 118 57 74 183 203 77 139 149 156 202 187 80 178 198 119 244 292 112 156 208 164 248 162 119 103 83 87 236 290 271 108 233 222 216 216 206 205
328 325 322 140 200 249 326 326 52 43 205 224 165 163 118 117 128 105 142 94 185 178 208 248 308 286 227 78 159 121 75 56 61 57 308 211 172 271 197 252 264 211 219 211 200
329 321 242 225 196 323 315 50 44 125 335 166 198 135 132 171 179 148 161 170 172 125 275 332 234 238 173 84 29 79 84 36 17 54 232 252 173 250 310 306 279 233 215 210 196
330 329 197 232 304 347 53 52 139 243 254 304 56 65 157 133 39 77 99 227 217 105 103 188 319 194 197 167 175 178 160 158 193 196 240 84 237 250 342 342 348 313 202 195 190
322 31 109 279 215 357 73 72 210 207 291 336 43 94 88 96 148 99 185 203 231 164 166 160 271 295 224 135 141 217 226 189 100 27 94 214 280 244 31 31 31 39 58 61 67
29 22 3 356 72 64 74 219 231 219 314 49 127 86 129 342 115 87 172 205 235 187 185 213 288 217 288 105 113 155 164 76 6 161 218 258 267 243 309 58 52 52 64 61 69
34 56 291 21 47 47 143 230 259 239 192 232 156 94 106 115 111 137 164 279 326 14 146 146 144 259 155 192 205 139 195 92 129 123 179 226 258 266 225 180 119 92 90 98 87
62 56 300 38 49 63 148 211 289 291 240 176 100 95 126 126 68 79 207 235 23 217 233 165 144 250 226 353 122 151 243 147 123 241 187 158 274 346 132 135 149 140 137 138 133
70 264 322 80 76 327 317 300 259 321 356 56 63 63 100 125 112 278 267 282 325 343 201 189 353 355 337 7 10 108 56 87 95 82 192 152 260 145 141 149 171 163 130 57 58
69 41 338 44 30 78 357 330 325 330 44 67 96 67 86 57 15 146 341 291 318 259 86 93 126 170 196 222 170 104 0 89 128 117 174 226 192 185 179 168 161 126 103 70 64
27 82 178 350 349 3 330 337 333 347 38 37 36 70 139 117 84 242 245 301 293 133 97 136 151 131 325 358 77 99 26 22 172 173 173 251 189 177 175 178 152 126 107 129 153
63 35 1 90 291 352 356 18 339 325 338 18 110 185 143 160 187 220 200 207 246 324 62 7 165 109 12 12 29 97 37 41 63 108 101 125 79 109 109 106 133 168 177 187 176
332 357 101 316 349 62 298 313 279 325 298 40 240 146 216 251 230 251 190 130 170 224 303 72 134 105 231 347 331 6 340 320 187 188 162 207 180 143 145 168 182 195 203 191 156